Time,TemperatureF,DewpointF,PressureIn,WindDirection,WindDirectionDegrees,WindSpeedMPH,WindSpeedGustMPH,Humidity,HourlyPrecipIn,Conditions,Clouds,dailyrainin,SoftwareType,DateUTC
2013-03-31 00:00:00,55.3,46.8,30.12,West,261,2.0,2.0,73,0.00,,,0.17,Wunderground v.1.15,2013-03-31 04:00:00,
2013-03-31 00:02:00,55.2,46.7,30.12,SW,235,2.0,2.0,73,0.00,,,0.00,Wunderground v.1.15,2013-03-31 04:02:00,
2013-03-31 00:08:00,55.0,46.9,30.12,WSW,258,2.0,3.0,74,0.00,,,0.00,Wunderground v.1.15,2013-03-31 04:08:00,
2013-03-31 00:12:00,54.9,46.8,30.12,WSW,256,2.0,2.0,74,0.00,,,0.00,Wunderground v.1.15,2013-03-31 04:12:00,
2013-03-31 00:14:00,54.9,47.1,30.12,WSW,246,2.0,2.0,75,0.00,,,0.00,Wunderground v.1.15,2013-03-31 04:14:00,
2013-03-31 00:20:00,54.8,47.0,30.12,WSW,243,2.0,2.0,75,0.00,,,0.00,Wunderground v.1.15,2013-03-31 04:20:00,
2013-03-31 00:26:00,54.8,47.0,30.11,West,259,3.0,5.0,75,0.00,,,0.00,Wunderground v.1.15,2013-03-31 04:26:00,
2013-03-31 00:32:00,54.6,47.2,30.11,WSW,250,3.0,4.0,76,0.00,,,0.00,Wunderground v.1.15,2013-03-31 04:32:00,
2013-03-31 00:38:00,54.5,47.1,30.11,West,270,2.0,4.0,76,0.00,,,0.00,Wunderground v.1.15,2013-03-31 04:38:00,
2013-03-31 00:44:00,54.4,47.3,30.10,SW,234,2.0,3.0,77,0.00,,,0.00,Wunderground v.1.15,2013-03-31 04:44:00,
2013-03-31 00:50:00,54.4,47.3,30.10,West,274,2.0,2.0,77,0.00,,,0.00,Wunderground v.1.15,2013-03-31 04:50:00,
2013-03-31 00:56:00,54.4,47.7,30.10,WSW,239,2.0,2.0,78,0.00,,,0.00,Wunderground v.1.15,2013-03-31 04:56:00,
2013-03-31 01:02:00,54.4,47.7,30.10,WSW,247,2.0,2.0,78,0.00,,,0.00,Wunderground v.1.15,2013-03-31 05:02:00,
2013-03-31 01:08:00,54.4,47.7,30.09,WSW,257,2.0,2.0,78,0.00,,,0.00,Wunderground v.1.15,2013-03-31 05:08:00,
2013-03-31 01:14:00,54.4,47.7,30.09,West,272,2.0,2.0,78,0.00,,,0.00,Wunderground v.1.15,2013-03-31 05:14:00,
2013-03-31 01:20:00,54.4,47.7,30.09,West,268,2.0,3.0,78,0.00,,,0.00,Wunderground v.1.15,2013-03-31 05:20:00,
2013-03-31 01:26:00,54.4,47.7,30.09,WSW,242,2.0,3.0,78,0.00,,,0.00,Wunderground v.1.15,2013-03-31 05:26:00,
2013-03-31 01:32:00,54.3,47.6,30.08,West,262,1.0,2.0,78,0.00,,,0.00,Wunderground v.1.15,2013-03-31 05:32:00,
2013-03-31 01:38:00,54.3,47.6,30.08,West,267,2.0,4.0,78,0.00,,,0.00,Wunderground v.1.15,2013-03-31 05:38:00,
2013-03-31 01:44:00,54.2,47.8,30.08,WSW,250,1.0,3.0,79,0.00,,,0.00,Wunderground v.1.15,2013-03-31 05:44:00,
2013-03-31 01:50:00,54.2,47.8,30.08,WSW,254,1.0,1.0,79,0.00,,,0.00,Wunderground v.1.15,2013-03-31 05:50:00,
2013-03-31 01:56:00,54.1,47.7,30.08,West,263,1.0,2.0,79,0.00,,,0.00,Wunderground v.1.15,2013-03-31 05:56:00,
2013-03-31 02:02:00,54.1,47.7,30.08,WNW,292,1.0,1.0,79,0.00,,,0.00,Wunderground v.1.15,2013-03-31 06:02:00,
2013-03-31 02:08:00,54.2,48.2,30.08,WNW,290,1.0,3.0,80,0.00,,,0.00,Wunderground v.1.15,2013-03-31 06:08:00,
2013-03-31 02:14:00,54.2,48.2,30.08,WNW,285,1.0,2.0,80,0.00,,,0.00,Wunderground v.1.15,2013-03-31 06:14:00,
2013-03-31 02:20:00,54.2,48.2,30.08,WNW,285,0.0,1.0,80,0.00,,,0.00,Wunderground v.1.15,2013-03-31 06:20:00,
2013-03-31 02:26:00,54.1,48.7,30.08,NNW,328,0.0,2.0,82,0.00,,,0.00,Wunderground v.1.15,2013-03-31 06:26:00,
2013-03-31 02:32:00,53.7,49.0,30.09,NNW,328,0.0,1.0,84,0.00,,,0.00,Wunderground v.1.15,2013-03-31 06:32:00,
2013-03-31 02:38:00,53.3,49.2,30.09,NNW,347,1.0,1.0,86,0.00,,,0.01,Wunderground v.1.15,2013-03-31 06:38:00,
2013-03-31 02:44:00,53.2,49.1,30.08,NNW,347,0.0,1.0,86,0.00,,,0.01,Wunderground v.1.15,2013-03-31 06:44:00,
2013-03-31 02:50:00,53.0,49.5,30.08,NNW,337,0.0,0.0,88,0.04,,,0.02,Wunderground v.1.15,2013-03-31 06:50:00,
2013-03-31 02:56:00,52.8,49.6,30.08,NNW,337,0.0,0.0,89,0.08,,,0.03,Wunderground v.1.15,2013-03-31 06:56:00,
2013-03-31 03:02:00,52.6,49.8,30.07,NNW,337,0.0,0.0,90,0.08,,,0.03,Wunderground v.1.15,2013-03-31 07:02:00,
2013-03-31 03:08:00,52.3,49.8,30.06,NW,326,0.0,0.0,91,0.05,,,0.03,Wunderground v.1.15,2013-03-31 07:08:00,
2013-03-31 03:14:00,52.1,49.6,30.06,NW,326,0.0,0.0,91,0.00,,,0.03,Wunderground v.1.15,2013-03-31 07:14:00,
2013-03-31 03:20:00,52.0,49.5,30.06,NW,326,0.0,0.0,91,0.00,,,0.04,Wunderground v.1.15,2013-03-31 07:20:00,
2013-03-31 03:26:00,51.9,49.4,30.06,NW,326,0.0,0.0,91,0.11,,,0.05,Wunderground v.1.15,2013-03-31 07:26:00,
2013-03-31 03:32:00,51.8,49.5,30.05,NW,326,0.0,1.0,92,0.08,,,0.06,Wunderground v.1.15,2013-03-31 07:32:00,
2013-03-31 03:38:00,51.7,49.5,30.05,NW,326,0.0,1.0,92,0.12,,,0.07,Wunderground v.1.15,2013-03-31 07:38:00,
2013-03-31 03:44:00,51.7,49.5,30.04,NW,326,0.0,0.0,92,0.24,,,0.10,Wunderground v.1.15,2013-03-31 07:44:00,
2013-03-31 03:50:00,51.6,49.4,30.04,WSW,257,0.0,3.0,92,0.15,,,0.11,Wunderground v.1.15,2013-03-31 07:50:00,
2013-03-31 03:56:00,51.4,49.2,30.04,WNW,288,1.0,3.0,92,0.07,,,0.11,Wunderground v.1.15,2013-03-31 07:56:00,
2013-03-31 04:02:00,51.4,49.4,30.04,WSW,256,1.0,1.0,93,0.28,,,0.13,Wunderground v.1.15,2013-03-31 08:02:00,
2013-03-31 04:08:00,51.3,49.3,30.03,WNW,295,0.0,1.0,93,0.18,,,0.14,Wunderground v.1.15,2013-03-31 08:08:00,
2013-03-31 04:14:00,51.2,49.2,30.03,West,277,0.0,1.0,93,0.13,,,0.16,Wunderground v.1.15,2013-03-31 08:14:00,
2013-03-31 04:20:00,51.2,49.2,30.02,WSW,252,1.0,1.0,93,0.12,,,0.17,Wunderground v.1.15,2013-03-31 08:20:00,
2013-03-31 04:26:00,51.1,49.1,30.02,NW,308,1.0,3.0,93,0.22,,,0.18,Wunderground v.1.15,2013-03-31 08:26:00,
2013-03-31 04:32:00,51.0,49.0,30.03,WNW,301,1.0,1.0,93,0.32,,,0.21,Wunderground v.1.15,2013-03-31 08:32:00,
2013-03-31 04:38:00,51.0,49.0,30.02,WSW,254,1.0,1.0,93,0.11,,,0.22,Wunderground v.1.15,2013-03-31 08:38:00,
2013-03-31 04:44:00,50.9,49.2,30.02,West,268,1.0,1.0,94,0.10,,,0.23,Wunderground v.1.15,2013-03-31 08:44:00,
2013-03-31 04:50:00,50.9,49.2,30.02,WSW,247,0.0,2.0,94,0.08,,,0.23,Wunderground v.1.15,2013-03-31 08:50:00,
2013-03-31 04:56:00,50.9,49.2,30.02,West,270,1.0,2.0,94,0.19,,,0.25,Wunderground v.1.15,2013-03-31 08:56:00,
2013-03-31 05:02:00,50.9,49.2,30.02,WNW,285,1.0,1.0,94,0.09,,,0.25,Wunderground v.1.15,2013-03-31 09:02:00,
2013-03-31 05:08:00,50.9,49.2,30.02,NW,308,1.0,2.0,94,0.05,,,0.25,Wunderground v.1.15,2013-03-31 09:08:00,
2013-03-31 05:14:00,50.9,49.2,30.01,WNW,300,1.0,1.0,94,0.04,,,0.26,Wunderground v.1.15,2013-03-31 09:14:00,
2013-03-31 05:20:00,50.9,49.2,30.01,West,278,1.0,2.0,94,0.04,,,0.26,Wunderground v.1.15,2013-03-31 09:20:00,
2013-03-31 05:26:00,50.8,49.1,30.01,West,277,1.0,2.0,94,0.04,,,0.26,Wunderground v.1.15,2013-03-31 09:26:00,
2013-03-31 05:32:00,50.8,49.1,30.01,WNW,284,1.0,2.0,94,0.00,,,0.26,Wunderground v.1.15,2013-03-31 09:32:00,
2013-03-31 05:38:00,50.8,49.1,30.01,WNW,286,1.0,3.0,94,0.00,,,0.26,Wunderground v.1.15,2013-03-31 09:38:00,
2013-03-31 05:44:00,50.9,49.2,30.00,WNW,287,1.0,3.0,94,0.00,,,0.26,Wunderground v.1.15,2013-03-31 09:44:00,
2013-03-31 05:50:00,50.9,49.2,30.00,WNW,293,1.0,1.0,94,0.00,,,0.26,Wunderground v.1.15,2013-03-31 09:50:00,
2013-03-31 05:56:00,50.9,49.2,30.00,WNW,283,1.0,1.0,94,0.00,,,0.26,Wunderground v.1.15,2013-03-31 09:56:00,
2013-03-31 06:02:00,51.0,49.3,30.00,WNW,287,1.0,2.0,94,0.00,,,0.26,Wunderground v.1.15,2013-03-31 10:02:00,
2013-03-31 06:08:00,51.0,49.3,30.00,WNW,287,1.0,2.0,94,0.00,,,0.26,Wunderground v.1.15,2013-03-31 10:08:00,
2013-03-31 06:14:00,51.0,49.3,30.00,WNW,293,0.0,1.0,94,0.00,,,0.26,Wunderground v.1.15,2013-03-31 10:14:00,
2013-03-31 06:20:00,51.0,49.3,30.00,WNW,296,0.0,0.0,94,0.00,,,0.26,Wunderground v.1.15,2013-03-31 10:20:00,
2013-03-31 06:26:00,51.0,49.3,30.00,WNW,293,0.0,1.0,94,0.00,,,0.27,Wunderground v.1.15,2013-03-31 10:26:00,
2013-03-31 06:32:00,51.0,49.3,30.00,WNW,293,0.0,0.0,94,0.00,,,0.27,Wunderground v.1.15,2013-03-31 10:32:00,
2013-03-31 06:38:00,51.0,49.3,30.00,WNW,291,0.0,1.0,94,0.04,,,0.28,Wunderground v.1.15,2013-03-31 10:38:00,
2013-03-31 06:44:00,51.0,49.3,30.00,WNW,295,0.0,1.0,94,0.08,,,0.28,Wunderground v.1.15,2013-03-31 10:44:00,
2013-03-31 06:50:00,51.0,49.3,30.00,WNW,295,0.0,0.0,94,0.08,,,0.29,Wunderground v.1.15,2013-03-31 10:50:00,
2013-03-31 06:56:00,51.0,49.3,30.00,WNW,295,0.0,0.0,94,0.05,,,0.29,Wunderground v.1.15,2013-03-31 10:56:00,
2013-03-31 07:02:00,51.1,49.4,30.00,WNW,285,0.0,1.0,94,0.00,,,0.29,Wunderground v.1.15,2013-03-31 11:02:00,
2013-03-31 07:08:00,51.2,49.8,29.99,WNW,294,1.0,1.0,95,0.00,,,0.29,Wunderground v.1.15,2013-03-31 11:08:00,
2013-03-31 07:14:00,51.2,49.5,29.99,WNW,285,0.0,1.0,94,0.00,,,0.29,Wunderground v.1.15,2013-03-31 11:14:00,
2013-03-31 07:20:00,51.3,49.6,29.99,WNW,291,1.0,1.0,94,0.00,,,0.29,Wunderground v.1.15,2013-03-31 11:20:00,
2013-03-31 07:26:00,51.4,49.7,29.99,WNW,293,1.0,2.0,94,0.00,,,0.29,Wunderground v.1.15,2013-03-31 11:26:00,
2013-03-31 07:32:00,51.5,49.8,29.99,North,354,1.0,3.0,94,0.00,,,0.29,Wunderground v.1.15,2013-03-31 11:32:00,
2013-03-31 07:38:00,51.6,49.9,29.99,NW,312,2.0,3.0,94,0.00,,,0.29,Wunderground v.1.15,2013-03-31 11:38:00,
2013-03-31 07:44:00,51.7,50.0,29.99,NW,315,2.0,2.0,94,0.00,,,0.29,Wunderground v.1.15,2013-03-31 11:44:00,
2013-03-31 07:50:00,51.9,50.2,29.99,North,349,2.0,2.0,94,0.00,,,0.29,Wunderground v.1.15,2013-03-31 11:50:00,
2013-03-31 07:56:00,52.1,50.4,29.99,NW,313,2.0,4.0,94,0.00,,,0.29,Wunderground v.1.15,2013-03-31 11:56:00,
2013-03-31 08:02:00,52.4,50.7,29.99,WNW,285,2.0,2.0,94,0.00,,,0.29,Wunderground v.1.15,2013-03-31 12:02:00,
2013-03-31 08:08:00,52.6,50.9,29.99,West,280,2.0,3.0,94,0.00,,,0.29,Wunderground v.1.15,2013-03-31 12:08:00,
2013-03-31 08:14:00,52.8,51.1,29.99,North,350,2.0,4.0,94,0.00,,,0.29,Wunderground v.1.15,2013-03-31 12:14:00,
2013-03-31 08:20:00,53.0,51.0,29.99,North,2,2.0,3.0,93,0.00,,,0.29,Wunderground v.1.15,2013-03-31 12:20:00,
2013-03-31 08:26:00,53.2,51.2,29.99,North,4,2.0,3.0,93,0.00,,,0.29,Wunderground v.1.15,2013-03-31 12:26:00,
2013-03-31 08:32:00,53.4,51.4,29.99,NNW,328,2.0,2.0,93,0.00,,,0.29,Wunderground v.1.15,2013-03-31 12:32:00,
2013-03-31 08:38:00,53.7,51.7,29.99,North,9,2.0,3.0,93,0.00,,,0.29,Wunderground v.1.15,2013-03-31 12:38:00,
2013-03-31 08:44:00,54.0,52.0,29.99,NNW,347,2.0,2.0,93,0.00,,,0.29,Wunderground v.1.15,2013-03-31 12:44:00,
2013-03-31 08:50:00,54.2,52.2,29.99,North,355,2.0,4.0,93,0.00,,,0.29,Wunderground v.1.15,2013-03-31 12:50:00,
2013-03-31 08:56:00,54.5,52.5,29.99,North,11,2.0,4.0,93,0.00,,,0.29,Wunderground v.1.15,2013-03-31 12:56:00,
2013-03-31 09:02:00,54.9,53.2,29.98,NNW,347,2.0,3.0,94,0.00,,,0.29,Wunderground v.1.15,2013-03-31 13:02:00,
2013-03-31 09:08:00,55.2,53.2,29.98,NNW,337,2.0,3.0,93,0.00,,,0.29,Wunderground v.1.15,2013-03-31 13:08:00,
2013-03-31 09:14:00,55.5,53.2,29.98,NW,314,2.0,4.0,92,0.00,,,0.29,Wunderground v.1.15,2013-03-31 13:14:00,
2013-03-31 09:20:00,55.9,53.6,29.98,NNE,22,2.0,4.0,92,0.00,,,0.29,Wunderground v.1.15,2013-03-31 13:20:00,
2013-03-31 09:26:00,56.0,53.7,29.98,NNW,339,3.0,5.0,92,0.00,,,0.29,Wunderground v.1.15,2013-03-31 13:26:00,
2013-03-31 09:32:00,56.3,54.0,29.97,NNE,13,2.0,4.0,92,0.00,,,0.29,Wunderground v.1.15,2013-03-31 13:32:00,
2013-03-31 09:38:00,56.7,54.4,29.98,NNW,342,2.0,4.0,92,0.00,,,0.29,Wunderground v.1.15,2013-03-31 13:38:00,
2013-03-31 09:44:00,56.9,54.3,29.98,NNE,24,2.0,4.0,91,0.00,,,0.29,Wunderground v.1.15,2013-03-31 13:44:00,
2013-03-31 09:50:00,57.0,54.1,29.98,NNE,16,2.0,2.0,90,0.00,,,0.29,Wunderground v.1.15,2013-03-31 13:50:00,
2013-03-31 09:56:00,57.2,54.6,29.98,NW,323,2.0,3.0,91,0.00,,,0.29,Wunderground v.1.15,2013-03-31 13:56:00,
2013-03-31 10:02:00,57.4,54.2,29.98,NW,313,2.0,3.0,89,0.00,,,0.29,Wunderground v.1.15,2013-03-31 14:02:00,
2013-03-31 10:08:00,57.5,54.6,29.98,North,355,3.0,3.0,90,0.00,,,0.29,Wunderground v.1.15,2013-03-31 14:08:00,
2013-03-31 10:14:00,58.0,54.8,29.98,NNW,331,3.0,4.0,89,0.00,,,0.29,Wunderground v.1.15,2013-03-31 14:14:00,
2013-03-31 10:20:00,58.6,55.7,29.98,NW,324,3.0,3.0,90,0.00,,,0.29,Wunderground v.1.15,2013-03-31 14:20:00,
2013-03-31 10:26:00,59.7,56.5,29.98,NE,35,3.0,4.0,89,0.00,,,0.29,Wunderground v.1.15,2013-03-31 14:26:00,
2013-03-31 10:32:00,60.9,57.0,29.98,North,10,3.0,4.0,87,0.00,,,0.29,Wunderground v.1.15,2013-03-31 14:32:00,
2013-03-31 10:38:00,60.9,56.7,29.98,NNE,20,4.0,7.0,86,0.00,,,0.29,Wunderground v.1.15,2013-03-31 14:38:00,
2013-03-31 10:44:00,61.4,56.8,29.97,North,349,4.0,4.0,85,0.00,,,0.29,Wunderground v.1.15,2013-03-31 14:44:00,
2013-03-31 10:50:00,61.9,57.7,29.97,North,9,4.0,4.0,86,0.00,,,0.29,Wunderground v.1.15,2013-03-31 14:50:00,
2013-03-31 10:56:00,63.0,57.8,29.97,North,8,4.0,4.0,83,0.00,,,0.29,Wunderground v.1.15,2013-03-31 14:56:00,
2013-03-31 11:02:00,63.8,58.5,29.97,NE,44,4.0,6.0,83,0.00,,,0.29,Wunderground v.1.15,2013-03-31 15:02:00,
2013-03-31 11:08:00,64.5,58.2,29.96,NNW,345,4.0,6.0,80,0.00,,,0.29,Wunderground v.1.15,2013-03-31 15:08:00,
2013-03-31 11:14:00,64.3,58.0,29.96,NNE,16,4.0,4.0,80,0.00,,,0.29,Wunderground v.1.15,2013-03-31 15:14:00,
2013-03-31 11:20:00,64.2,57.5,29.96,NNW,328,4.0,4.0,79,0.00,,,0.29,Wunderground v.1.15,2013-03-31 15:20:00,
2013-03-31 11:26:00,64.1,57.5,29.96,North,7,4.0,4.0,79,0.00,,,0.29,Wunderground v.1.15,2013-03-31 15:26:00,
2013-03-31 11:32:00,64.1,57.8,29.97,North,2,4.0,4.0,80,0.00,,,0.29,Wunderground v.1.15,2013-03-31 15:32:00,
2013-03-31 11:38:00,64.0,58.1,29.96,North,351,4.0,4.0,81,0.00,,,0.29,Wunderground v.1.15,2013-03-31 15:38:00,
2013-03-31 11:44:00,64.0,57.7,29.96,ENE,62,3.0,6.0,80,0.00,,,0.29,Wunderground v.1.15,2013-03-31 15:44:00,
2013-03-31 11:50:00,64.1,57.1,29.97,NE,55,4.0,6.0,78,0.00,,,0.29,Wunderground v.1.15,2013-03-31 15:50:00,
2013-03-31 11:56:00,63.8,57.5,29.97,North,355,4.0,6.0,80,0.00,,,0.29,Wunderground v.1.15,2013-03-31 15:56:00,
2013-03-31 12:02:00,63.9,57.3,29.97,North,355,3.0,5.0,79,0.00,,,0.29,Wunderground v.1.15,2013-03-31 16:02:00,
2013-03-31 12:08:00,64.0,57.4,29.97,NW,308,3.0,7.0,79,0.00,,,0.29,Wunderground v.1.15,2013-03-31 16:08:00,
2013-03-31 12:14:00,63.9,57.3,29.96,NE,56,3.0,3.0,79,0.00,,,0.29,Wunderground v.1.15,2013-03-31 16:14:00,
2013-03-31 12:20:00,63.6,56.6,29.96,NNW,333,4.0,6.0,78,0.00,,,0.29,Wunderground v.1.15,2013-03-31 16:20:00,
2013-03-31 12:26:00,63.6,56.6,29.95,North,349,4.0,6.0,78,0.00,,,0.29,Wunderground v.1.15,2013-03-31 16:26:00,
2013-03-31 12:32:00,64.2,58.6,29.95,North,8,3.0,3.0,82,0.00,,,0.29,Wunderground v.1.15,2013-03-31 16:32:00,
2013-03-31 12:38:00,64.7,57.3,29.95,NNW,342,3.0,7.0,77,0.00,,,0.29,Wunderground v.1.15,2013-03-31 16:38:00,
2013-03-31 12:44:00,64.5,56.8,29.96,North,360,5.0,6.0,76,0.00,,,0.29,Wunderground v.1.15,2013-03-31 16:44:00,
2013-03-31 12:50:00,64.6,56.9,29.96,East,87,5.0,5.0,76,0.00,,,0.29,Wunderground v.1.15,2013-03-31 16:50:00,
2013-03-31 12:56:00,65.0,58.0,29.95,NNE,19,4.0,5.0,78,0.00,,,0.29,Wunderground v.1.15,2013-03-31 16:56:00,
2013-03-31 13:02:00,65.8,58.7,29.95,North,6,4.0,4.0,78,0.00,,,0.29,Wunderground v.1.15,2013-03-31 17:02:00,
2013-03-31 13:08:00,66.1,57.2,29.94,North,359,4.0,4.0,73,0.00,,,0.29,Wunderground v.1.15,2013-03-31 17:08:00,
2013-03-31 13:14:00,65.8,56.9,29.94,NE,37,5.0,7.0,73,0.00,,,0.29,Wunderground v.1.15,2013-03-31 17:14:00,
2013-03-31 13:20:00,67.3,58.0,29.93,NE,43,5.0,6.0,72,0.00,,,0.29,Wunderground v.1.15,2013-03-31 17:20:00,
2013-03-31 13:26:00,68.3,58.9,29.94,ENE,65,4.0,8.0,72,0.00,,,0.29,Wunderground v.1.15,2013-03-31 17:26:00,
2013-03-31 13:32:00,69.1,58.1,29.93,NNE,26,4.0,5.0,68,0.00,,,0.29,Wunderground v.1.15,2013-03-31 17:32:00,
2013-03-31 13:38:00,69.8,58.3,29.93,NNE,12,4.0,6.0,67,0.00,,,0.29,Wunderground v.1.15,2013-03-31 17:38:00,
2013-03-31 13:44:00,69.9,59.3,29.92,NNW,348,5.0,6.0,69,0.00,,,0.29,Wunderground v.1.15,2013-03-31 17:44:00,
2013-03-31 13:50:00,69.6,58.2,29.92,NNW,329,5.0,5.0,67,0.00,,,0.29,Wunderground v.1.15,2013-03-31 17:50:00,
2013-03-31 13:56:00,69.6,57.3,29.92,NNW,330,4.0,5.0,65,0.00,,,0.29,Wunderground v.1.15,2013-03-31 17:56:00,
2013-03-31 14:02:00,69.9,57.2,29.92,ENE,61,4.0,7.0,64,0.00,,,0.29,Wunderground v.1.15,2013-03-31 18:02:00,
2013-03-31 14:08:00,69.9,56.3,29.92,NE,45,4.0,7.0,62,0.00,,,0.29,Wunderground v.1.15,2013-03-31 18:08:00,
2013-03-31 14:14:00,69.8,56.6,29.91,NE,37,5.0,6.0,63,0.00,,,0.29,Wunderground v.1.15,2013-03-31 18:14:00,
2013-03-31 14:20:00,69.9,57.6,29.91,NNW,338,4.0,4.0,65,0.00,,,0.29,Wunderground v.1.15,2013-03-31 18:20:00,
2013-03-31 14:26:00,70.0,56.8,29.91,North,6,3.0,4.0,63,0.00,,,0.29,Wunderground v.1.15,2013-03-31 18:26:00,
2013-03-31 14:32:00,70.2,56.6,29.90,NW,326,5.0,7.0,62,0.00,,,0.29,Wunderground v.1.15,2013-03-31 18:32:00,
2013-03-31 14:38:00,70.7,56.6,29.90,NE,55,5.0,8.0,61,0.00,,,0.29,Wunderground v.1.15,2013-03-31 18:38:00,
2013-03-31 14:44:00,70.8,56.2,29.90,North,1,5.0,8.0,60,0.00,,,0.29,Wunderground v.1.15,2013-03-31 18:44:00,
2013-03-31 14:50:00,70.7,55.2,29.90,NNW,346,4.0,4.0,58,0.00,,,0.29,Wunderground v.1.15,2013-03-31 18:50:00,
2013-03-31 14:56:00,70.8,56.2,29.90,NNE,20,4.0,5.0,60,0.00,,,0.29,Wunderground v.1.15,2013-03-31 18:56:00,
2013-03-31 15:02:00,70.8,55.8,29.90,ENE,67,4.0,8.0,59,0.00,,,0.29,Wunderground v.1.15,2013-03-31 19:02:00,
2013-03-31 15:08:00,70.4,54.9,29.90,NE,45,4.0,8.0,58,0.00,,,0.29,Wunderground v.1.15,2013-03-31 19:08:00,
2013-03-31 15:14:00,70.3,55.8,29.90,NE,45,4.0,5.0,60,0.00,,,0.29,Wunderground v.1.15,2013-03-31 19:14:00,
2013-03-31 15:20:00,71.2,55.7,29.89,North,10,4.0,4.0,58,0.00,,,0.29,Wunderground v.1.15,2013-03-31 19:20:00,
2013-03-31 15:26:00,71.4,56.8,29.89,North,353,4.0,6.0,60,0.00,,,0.29,Wunderground v.1.15,2013-03-31 19:26:00,
2013-03-31 15:32:00,70.9,54.9,29.90,North,10,5.0,5.0,57,0.00,,,0.29,Wunderground v.1.15,2013-03-31 19:32:00,
2013-03-31 15:38:00,70.3,54.3,29.90,East,100,5.0,6.0,57,0.00,,,0.29,Wunderground v.1.15,2013-03-31 19:38:00,
2013-03-31 15:44:00,70.6,54.6,29.90,ENE,77,4.0,8.0,57,0.00,,,0.29,Wunderground v.1.15,2013-03-31 19:44:00,
2013-03-31 15:50:00,70.5,54.5,29.89,North,352,4.0,4.0,57,0.00,,,0.29,Wunderground v.1.15,2013-03-31 19:50:00,
2013-03-31 15:56:00,70.5,54.5,29.89,North,7,4.0,4.0,57,0.00,,,0.29,Wunderground v.1.15,2013-03-31 19:56:00,
2013-03-31 16:02:00,70.8,54.3,29.89,NNE,18,4.0,5.0,56,0.00,,,0.29,Wunderground v.1.15,2013-03-31 20:02:00,
2013-03-31 16:08:00,71.5,54.5,29.89,NNE,14,4.0,5.0,55,0.00,,,0.29,Wunderground v.1.15,2013-03-31 20:08:00,
2013-03-31 16:14:00,71.7,54.7,29.88,NNW,344,5.0,7.0,55,0.00,,,0.29,Wunderground v.1.15,2013-03-31 20:14:00,
2013-03-31 16:20:00,71.8,54.8,29.89,NNE,18,6.0,6.0,55,0.00,,,0.29,Wunderground v.1.15,2013-03-31 20:20:00,
2013-03-31 16:26:00,71.6,54.6,29.88,NNE,25,5.0,6.0,55,0.00,,,0.29,Wunderground v.1.15,2013-03-31 20:26:00,
2013-03-31 16:32:00,71.2,54.2,29.88,WNW,296,5.0,5.0,55,0.00,,,0.29,Wunderground v.1.15,2013-03-31 20:32:00,
2013-03-31 16:38:00,70.7,54.7,29.88,ENE,59,5.0,8.0,57,0.00,,,0.29,Wunderground v.1.15,2013-03-31 20:38:00,
2013-03-31 16:44:00,70.7,55.2,29.88,NE,44,3.0,5.0,58,0.00,,,0.29,Wunderground v.1.15,2013-03-31 20:44:00,
2013-03-31 16:50:00,71.1,54.6,29.87,North,355,4.0,4.0,56,0.00,,,0.29,Wunderground v.1.15,2013-03-31 20:50:00,
2013-03-31 16:56:00,71.7,55.2,29.88,ENE,71,5.0,7.0,56,0.00,,,0.29,Wunderground v.1.15,2013-03-31 20:56:00,
2013-03-31 17:02:00,72.1,54.0,29.87,NNE,23,4.0,6.0,53,0.00,,,0.29,Wunderground v.1.15,2013-03-31 21:02:00,
2013-03-31 17:08:00,72.1,53.5,29.87,ENE,68,4.0,8.0,52,0.00,,,0.29,Wunderground v.1.15,2013-03-31 21:08:00,
2013-03-31 17:14:00,71.3,53.3,29.87,NNE,16,5.0,7.0,53,0.00,,,0.29,Wunderground v.1.15,2013-03-31 21:14:00,
2013-03-31 17:20:00,70.9,53.4,29.87,NNE,17,5.0,5.0,54,0.00,,,0.29,Wunderground v.1.15,2013-03-31 21:20:00,
2013-03-31 17:26:00,70.5,53.1,29.87,NNE,18,5.0,5.0,54,0.00,,,0.29,Wunderground v.1.15,2013-03-31 21:26:00,
2013-03-31 17:32:00,70.1,53.7,29.88,ENE,73,4.0,5.0,56,0.00,,,0.29,Wunderground v.1.15,2013-03-31 21:32:00,
2013-03-31 17:38:00,69.6,53.7,29.87,North,4,4.0,5.0,57,0.00,,,0.29,Wunderground v.1.15,2013-03-31 21:38:00,
2013-03-31 17:44:00,69.4,52.5,29.87,NE,47,4.0,7.0,55,0.00,,,0.29,Wunderground v.1.15,2013-03-31 21:44:00,
2013-03-31 17:50:00,69.2,52.8,29.87,North,355,5.0,5.0,56,0.00,,,0.29,Wunderground v.1.15,2013-03-31 21:50:00,
2013-03-31 17:56:00,68.9,52.6,29.88,ENE,57,4.0,7.0,56,0.00,,,0.29,Wunderground v.1.15,2013-03-31 21:56:00,
2013-03-31 18:02:00,68.8,52.5,29.88,NNE,23,4.0,4.0,56,0.00,,,0.29,Wunderground v.1.15,2013-03-31 22:02:00,
2013-03-31 18:08:00,68.5,52.2,29.88,North,360,4.0,4.0,56,0.00,,,0.29,Wunderground v.1.15,2013-03-31 22:08:00,
2013-03-31 18:14:00,68.2,52.4,29.88,NNE,12,4.0,6.0,57,0.00,,,0.29,Wunderground v.1.15,2013-03-31 22:14:00,
2013-03-31 18:20:00,68.1,52.3,29.88,North,7,4.0,6.0,57,0.00,,,0.29,Wunderground v.1.15,2013-03-31 22:20:00,
2013-03-31 18:26:00,67.8,52.0,29.88,East,81,4.0,6.0,57,0.00,,,0.29,Wunderground v.1.15,2013-03-31 22:26:00,
2013-03-31 18:32:00,67.7,51.9,29.89,NE,43,4.0,10.0,57,0.00,,,0.29,Wunderground v.1.15,2013-03-31 22:32:00,
2013-03-31 18:38:00,67.6,52.3,29.89,ENE,60,4.0,10.0,58,0.00,,,0.29,Wunderground v.1.15,2013-03-31 22:38:00,
2013-03-31 18:44:00,67.2,52.4,29.89,NE,39,3.0,7.0,59,0.00,,,0.29,Wunderground v.1.15,2013-03-31 22:44:00,
2013-03-31 18:50:00,67.0,52.7,29.89,NNE,29,3.0,3.0,60,0.00,,,0.29,Wunderground v.1.15,2013-03-31 22:50:00,
2013-03-31 18:56:00,66.8,52.5,29.90,NNE,13,3.0,5.0,60,0.00,,,0.29,Wunderground v.1.15,2013-03-31 22:56:00,
2013-03-31 19:02:00,66.8,52.5,29.90,SE,138,5.0,5.0,60,0.00,,,0.29,Wunderground v.1.15,2013-03-31 23:02:00,
2013-03-31 19:08:00,66.6,52.3,29.89,NNW,342,3.0,5.0,60,0.00,,,0.29,Wunderground v.1.15,2013-03-31 23:08:00,
2013-03-31 19:14:00,66.4,53.0,29.89,NNE,28,2.0,5.0,62,0.00,,,0.29,Wunderground v.1.15,2013-03-31 23:14:00,
2013-03-31 19:20:00,66.1,52.7,29.89,North,6,2.0,2.0,62,0.00,,,0.29,Wunderground v.1.15,2013-03-31 23:20:00,
2013-03-31 19:26:00,65.9,52.9,29.89,North,354,2.0,5.0,63,0.00,,,0.29,Wunderground v.1.15,2013-03-31 23:26:00,
2013-03-31 19:32:00,65.7,53.2,29.89,East,87,4.0,6.0,64,0.00,,,0.29,Wunderground v.1.15,2013-03-31 23:32:00,
2013-03-31 19:38:00,65.4,53.3,29.89,NW,326,4.0,11.0,65,0.00,,,0.29,Wunderground v.1.15,2013-03-31 23:38:00,
2013-03-31 19:44:00,65.0,53.8,29.89,NNE,33,4.0,5.0,67,0.00,,,0.29,Wunderground v.1.15,2013-03-31 23:44:00,
2013-03-31 19:50:00,64.7,53.5,29.89,NE,40,3.0,3.0,67,0.00,,,0.29,Wunderground v.1.15,2013-03-31 23:50:00,
2013-03-31 19:56:00,64.5,53.3,29.90,NE,39,3.0,8.0,67,0.00,,,0.29,Wunderground v.1.15,2013-03-31 23:56:00,
2013-03-31 20:02:00,64.4,53.6,29.89,ENE,58,3.0,3.0,68,0.00,,,0.29,Wunderground v.1.15,2013-04-01 00:02:00,
2013-03-31 20:08:00,64.2,53.8,29.89,NE,56,3.0,3.0,69,0.00,,,0.29,Wunderground v.1.15,2013-04-01 00:08:00,
2013-03-31 20:14:00,64.0,53.6,29.88,NNE,24,2.0,4.0,69,0.00,,,0.29,Wunderground v.1.15,2013-04-01 00:14:00,
2013-03-31 20:20:00,63.6,53.6,29.89,ENE,64,2.0,2.0,70,0.00,,,0.29,Wunderground v.1.15,2013-04-01 00:20:00,
2013-03-31 20:26:00,63.4,53.8,29.89,NE,41,2.0,2.0,71,0.00,,,0.29,Wunderground v.1.15,2013-04-01 00:26:00,
2013-03-31 20:32:00,63.1,53.9,29.89,NE,45,1.0,1.0,72,0.00,,,0.29,Wunderground v.1.15,2013-04-01 00:32:00,
2013-03-31 20:38:00,62.7,53.5,29.89,NE,37,0.0,1.0,72,0.00,,,0.29,Wunderground v.1.15,2013-04-01 00:38:00,
2013-03-31 20:44:00,62.3,53.5,29.89,North,2,0.0,1.0,73,0.00,,,0.29,Wunderground v.1.15,2013-04-01 00:44:00,
2013-03-31 20:50:00,62.0,53.6,29.89,NNE,31,1.0,1.0,74,0.00,,,0.29,Wunderground v.1.15,2013-04-01 00:50:00,
2013-03-31 20:56:00,61.8,53.8,29.89,NNE,18,0.0,1.0,75,0.00,,,0.29,Wunderground v.1.15,2013-04-01 00:56:00,
2013-03-31 21:02:00,61.5,53.5,29.89,North,349,0.0,1.0,75,0.00,,,0.29,Wunderground v.1.15,2013-04-01 01:02:00,
2013-03-31 21:08:00,61.3,53.7,29.90,NNW,335,0.0,1.0,76,0.00,,,0.29,Wunderground v.1.15,2013-04-01 01:08:00,
2013-03-31 21:14:00,61.1,53.8,29.90,NNE,23,0.0,0.0,77,0.00,,,0.29,Wunderground v.1.15,2013-04-01 01:14:00,
2013-03-31 21:20:00,60.8,53.9,29.90,NNE,31,0.0,0.0,78,0.00,,,0.29,Wunderground v.1.15,2013-04-01 01:20:00,
2013-03-31 21:26:00,60.5,53.6,29.90,NNE,33,0.0,0.0,78,0.00,,,0.29,Wunderground v.1.15,2013-04-01 01:26:00,
2013-03-31 21:32:00,60.3,53.8,29.91,NNE,31,0.0,0.0,79,0.00,,,0.29,Wunderground v.1.15,2013-04-01 01:32:00,
2013-03-31 21:38:00,60.0,53.5,29.91,NNE,31,0.0,0.0,79,0.00,,,0.29,Wunderground v.1.15,2013-04-01 01:38:00,
2013-03-31 21:44:00,59.8,53.6,29.91,NNE,31,0.0,0.0,80,0.00,,,0.29,Wunderground v.1.15,2013-04-01 01:44:00,
2013-03-31 21:50:00,59.5,53.7,29.91,NNE,31,0.0,0.0,81,0.00,,,0.29,Wunderground v.1.15,2013-04-01 01:50:00,
2013-03-31 21:56:00,59.2,53.7,29.91,North,357,0.0,0.0,82,0.00,,,0.29,Wunderground v.1.15,2013-04-01 01:56:00,
2013-03-31 22:02:00,59.0,53.8,29.91,North,358,0.0,0.0,83,0.00,,,0.29,Wunderground v.1.15,2013-04-01 02:02:00,
2013-03-31 22:08:00,58.9,53.7,29.91,North,356,0.0,1.0,83,0.00,,,0.29,Wunderground v.1.15,2013-04-01 02:08:00,
2013-03-31 22:14:00,58.8,54.0,29.91,North,360,0.0,1.0,84,0.00,,,0.29,Wunderground v.1.15,2013-04-01 02:14:00,
2013-03-31 22:20:00,58.7,53.9,29.91,North,360,0.0,0.0,84,0.00,,,0.29,Wunderground v.1.15,2013-04-01 02:20:00,
2013-03-31 22:26:00,58.5,54.0,29.91,ENE,64,0.0,0.0,85,0.00,,,0.29,Wunderground v.1.15,2013-04-01 02:26:00,
2013-03-31 22:32:00,58.4,53.9,29.91,NE,44,0.0,0.0,85,0.00,,,0.29,Wunderground v.1.15,2013-04-01 02:32:00,
2013-03-31 22:38:00,58.2,54.0,29.91,North,351,0.0,1.0,86,0.00,,,0.29,Wunderground v.1.15,2013-04-01 02:38:00,
2013-03-31 22:44:00,58.2,54.0,29.91,NNE,12,0.0,0.0,86,0.00,,,0.29,Wunderground v.1.15,2013-04-01 02:44:00,
2013-03-31 22:50:00,58.2,54.3,29.90,NNE,12,0.0,0.0,87,0.00,,,0.29,Wunderground v.1.15,2013-04-01 02:50:00,
2013-03-31 22:56:00,58.2,54.3,29.91,North,3,0.0,1.0,87,0.00,,,0.29,Wunderground v.1.15,2013-04-01 02:56:00,
2013-03-31 23:02:00,58.5,55.0,29.91,North,349,1.0,2.0,88,0.00,,,0.29,Wunderground v.1.15,2013-04-01 03:02:00,
2013-03-31 23:08:00,58.7,54.8,29.90,North,353,1.0,2.0,87,0.00,,,0.29,Wunderground v.1.15,2013-04-01 03:08:00,
2013-03-31 23:14:00,58.9,55.0,29.90,NNW,347,1.0,1.0,87,0.00,,,0.29,Wunderground v.1.15,2013-04-01 03:14:00,
2013-03-31 23:20:00,59.2,55.3,29.90,North,360,1.0,1.0,87,0.00,,,0.29,Wunderground v.1.15,2013-04-01 03:20:00,
2013-03-31 23:26:00,59.3,55.1,29.90,NW,326,1.0,1.0,86,0.00,,,0.29,Wunderground v.1.15,2013-04-01 03:26:00,
2013-03-31 23:32:00,59.4,55.2,29.90,North,11,1.0,1.0,86,0.00,,,0.29,Wunderground v.1.15,2013-04-01 03:32:00,
2013-03-31 23:38:00,59.4,55.2,29.90,NNE,24,1.0,2.0,86,0.00,,,0.29,Wunderground v.1.15,2013-04-01 03:38:00,
2013-03-31 23:44:00,59.6,55.4,29.90,North,5,1.0,2.0,86,0.00,,,0.29,Wunderground v.1.15,2013-04-01 03:44:00,
2013-03-31 23:50:00,59.7,55.5,29.90,NNE,12,1.0,1.0,86,0.00,,,0.29,Wunderground v.1.15,2013-04-01 03:50:00,
2013-03-31 23:56:00,59.7,55.5,29.90,NNE,14,1.0,1.0,86,0.00,,,0.29,Wunderground v.1.15,2013-04-01 03:56:00,